GFSSW_925_thetae_132.txt.gz
Theta_e
306 306 306 306 307 307 307 307 307 307 307 310 312 311 311 312 311 313 314 313 313 308 310 311 311 310 309 314 315 316 316 316 316 316 317 318 318 320 321 322 324 327 331 344 353
310 311 312 312 312 311 311 311 311 311 309 309 311 311 311 310 312 314 314 311 310 306 314 312 311 309 310 312 314 315 316 316 317 317 316 317 317 318 319 321 322 325 336 344 352
312 313 314 314 313 313 313 312 313 313 313 312 312 310 311 310 315 316 312 315 310 306 310 311 311 310 311 312 315 315 315 316 315 315 315 315 315 316 317 318 321 324 328 339 343
312 313 313 313 313 313 313 312 312 312 311 311 310 310 310 313 322 322 313 314 307 313 310 310 312 311 312 312 313 313 314 314 314 314 314 315 315 315 316 317 319 321 323 323 325
312 312 313 313 312 312 312 311 311 311 310 310 310 309 312 316 317 319 314 310 314 312 310 312 313 313 313 313 313 313 313 313 314 314 314 314 314 314 314 315 317 318 319 320 321
313 313 312 313 312 312 311 310 310 310 309 309 309 309 313 317 314 312 314 316 315 314 311 313 314 314 313 313 313 314 313 313 313 314 315 314 314 314 314 315 315 316 317 319 321
312 312 312 312 311 311 310 310 309 309 309 310 310 311 312 317 313 316 315 316 316 314 314 312 312 312 312 312 312 312 314 316 317 316 316 316 315 315 316 315 315 316 317 318 319
312 312 312 312 311 311 310 309 309 309 311 311 310 312 316 314 314 314 318 319 318 317 313 312 310 312 311 313 315 316 317 317 317 317 318 316 317 318 318 317 315 316 317 318 319
312 312 311 311 311 311 310 309 309 310 312 310 312 313 317 313 313 313 314 318 318 314 312 311 311 311 310 313 316 318 317 317 317 318 318 317 319 320 319 318 317 317 318 318 320
312 311 311 311 310 310 309 309 310 311 311 311 312 313 315 316 315 315 314 318 316 314 313 312 312 312 311 312 315 317 317 317 318 319 318 319 319 320 320 320 320 320 320 319 320
311 310 310 310 310 309 309 311 317 318 313 319 318 317 316 316 316 314 313 318 316 315 314 313 312 311 311 313 315 318 318 318 319 319 319 320 321 321 321 321 321 321 321 320 321
310 309 309 310 309 309 309 314 315 315 320 319 318 317 316 316 319 316 313 318 318 317 314 313 312 311 312 313 315 317 319 319 319 319 319 320 320 321 321 321 322 322 322 322 322
308 308 308 308 308 310 311 312 311 314 320 320 318 319 318 317 319 316 315 319 318 318 317 315 316 314 314 317 318 318 318 319 319 319 319 320 321 321 321 321 321 322 322 323 323
306 305 305 306 310 311 311 312 312 313 325 323 321 320 318 318 320 318 314 318 318 318 317 317 317 317 317 318 318 319 318 318 319 319 320 320 320 321 320 320 321 321 323 324 324
306 305 305 306 307 310 310 313 314 315 329 324 323 319 319 319 321 319 314 316 317 317 317 316 317 318 318 317 318 319 319 319 320 321 321 320 320 320 320 320 321 321 322 326 327
305 304 304 307 309 309 310 311 315 325 328 327 324 323 322 320 320 320 316 315 316 318 318 317 317 317 316 316 319 319 319 319 320 320 321 320 320 320 320 320 321 323 326 327 327
304 302 304 306 310 311 311 314 325 325 321 327 327 326 323 322 320 319 318 317 317 318 320 318 318 318 319 319 320 319 321 322 321 320 319 320 320 320 321 321 324 326 327 328 329
301 302 308 309 309 312 312 322 325 320 323 326 326 326 326 321 321 320 321 320 318 319 320 319 320 319 318 319 319 320 321 321 321 321 320 320 319 319 322 327 325 326 327 328 329
303 307 310 311 310 311 320 325 322 322 323 323 325 321 324 324 321 321 321 321 320 321 322 322 320 319 319 319 319 320 321 321 322 321 321 320 321 321 325 326 326 326 327 329 330
306 308 312 313 311 312 322 323 322 321 324 323 326 323 323 327 326 323 321 322 320 321 321 322 325 321 323 322 321 320 322 323 322 323 323 321 321 321 325 324 326 326 327 327 327
307 312 314 312 312 317 323 321 321 320 323 322 325 325 323 324 327 326 325 327 326 324 322 322 323 324 322 323 323 323 323 324 326 325 326 325 323 326 325 325 326 326 326 325 325
307 312 313 312 321 322 323 321 319 320 323 323 323 323 324 319 322 323 328 324 320 325 325 325 325 329 324 324 323 325 325 326 331 328 327 326 327 328 328 326 326 325 325 325 324
308 310 312 312 325 325 322 321 321 321 322 322 322 321 320 322 322 325 324 320 321 324 326 326 329 332 331 328 325 325 325 326 327 329 330 332 329 327 328 327 326 326 326 325 325
308 313 318 317 318 321 322 322 320 318 321 320 321 318 319 319 318 323 321 318 321 322 319 323 328 328 332 328 327 328 326 325 327 334 330 328 326 327 325 324 324 325 325 326 324
308 313 313 318 318 317 319 321 320 319 319 319 320 319 319 319 317 317 319 318 319 319 320 324 326 325 324 322 322 322 323 323 324 325 326 323 320 319 318 318 317 317 318 319 320
310 311 311 312 315 317 317 319 319 319 318 319 320 318 316 317 315 314 316 319 319 320 322 321 325 322 322 318 318 319 319 319 319 318 318 318 317 316 316 318 319 319 319 319 319
307 308 310 310 311 316 318 319 318 318 317 316 318 317 316 315 314 315 315 315 316 317 318 319 318 319 315 315 315 315 314 314 315 315 314 315 318 320 319 319 317 318 318 319 318

GFSSW_925_thetae_138.txt.gz
Theta_e
315 315 315 315 315 314 314 315 314 314 314 314 314 313 313 312 311 314 317 319 318 318 316 313 317 312 314 316 317 317 316 317 318 320 321 323 323 325 324 324 324 325 326 330 349
314 314 314 314 314 314 313 313 313 313 313 313 313 313 312 311 313 316 317 318 319 319 315 315 316 314 315 316 317 317 317 317 318 319 321 322 322 322 322 322 322 324 325 331 341
314 314 314 314 314 314 313 312 312 313 313 313 312 312 311 311 316 322 316 319 319 318 315 313 315 315 315 316 316 317 318 319 319 319 320 320 320 320 320 320 321 322 324 325 329
313 313 313 312 312 313 312 312 312 312 312 312 311 311 310 313 323 321 318 317 318 317 316 313 317 315 315 315 315 315 317 318 318 319 319 318 319 318 318 319 320 321 322 323 325
313 312 312 312 312 312 312 311 311 311 311 310 310 310 312 315 317 317 319 320 316 317 315 315 317 316 315 315 315 315 316 318 319 318 318 318 317 317 317 319 319 320 320 321 322
312 312 311 311 311 311 311 311 311 311 311 310 311 310 313 317 314 316 318 322 319 316 316 315 317 316 316 315 315 316 317 317 318 318 318 317 317 317 317 318 318 318 319 319 321
312 310 311 311 311 310 310 311 311 311 311 311 312 314 314 317 316 318 319 321 319 316 316 316 315 315 316 316 317 317 317 318 318 318 318 318 317 317 318 319 319 319 319 319 320
311 311 311 311 310 309 309 310 310 310 311 311 313 315 317 316 317 318 318 319 320 317 316 314 314 316 318 317 318 316 318 317 317 318 317 317 316 318 320 321 320 320 320 320 320
311 311 310 309 307 306 306 307 307 310 312 312 314 314 319 318 318 318 318 318 320 320 319 318 318 317 318 318 317 317 316 317 317 318 318 318 318 319 320 322 322 322 321 321 321
310 310 310 307 307 306 306 307 309 311 313 315 315 316 316 320 320 319 319 317 321 320 321 319 319 318 318 317 318 316 317 317 318 320 320 320 319 321 321 322 323 323 322 322 322
308 308 307 307 306 305 306 310 317 316 316 320 321 320 321 321 319 319 319 318 321 321 323 322 319 319 318 318 317 316 318 319 320 321 321 320 321 321 322 323 323 324 325 325 325
308 308 307 306 305 304 307 313 314 317 316 317 319 320 320 321 322 321 318 319 323 324 322 322 320 319 318 318 317 316 316 318 320 321 322 321 322 322 322 323 324 324 325 326 326
307 308 307 305 303 308 315 317 314 314 317 318 319 321 322 322 323 322 319 319 322 324 322 321 320 319 318 318 317 317 316 317 321 321 321 321 321 323 323 323 323 323 323 325 324
305 305 304 303 306 311 308 312 314 318 324 321 323 324 323 323 324 322 320 320 321 324 321 319 320 319 318 317 317 317 316 317 320 321 322 322 322 325 324 324 323 323 323 324 327
302 302 302 305 305 306 309 312 314 320 330 325 325 322 323 324 323 323 320 321 323 322 322 321 320 320 319 318 317 316 317 317 319 320 322 322 322 324 326 324 323 324 324 326 325
302 303 304 306 307 308 310 312 315 326 326 323 326 324 324 324 323 322 322 320 323 323 322 321 321 320 320 318 316 317 318 320 320 320 323 321 321 322 323 325 324 324 324 327 326
302 303 304 306 307 307 311 314 322 324 319 325 330 326 325 325 323 325 322 319 325 326 324 322 321 321 319 319 318 318 320 322 323 323 324 322 322 324 325 324 324 326 327 327 326
303 305 308 309 311 311 313 317 322 319 320 324 328 324 325 325 326 323 325 317 319 321 323 326 325 323 320 320 320 319 321 322 326 324 322 321 323 323 325 324 326 325 325 325 326
304 309 310 312 312 313 314 319 319 318 319 324 326 330 327 327 327 327 328 320 318 319 321 322 326 320 319 319 320 320 321 322 324 324 326 324 323 326 326 325 325 324 325 328 329
305 311 314 317 317 316 317 319 318 317 319 321 326 324 327 327 329 329 328 325 319 318 319 323 328 321 321 320 320 321 320 322 323 326 329 326 325 326 327 326 324 324 327 328 327
308 313 319 319 318 319 321 319 318 318 319 322 325 324 327 327 325 323 329 326 324 320 319 321 329 330 323 323 321 320 322 323 324 326 330 330 332 329 327 331 331 328 328 328 326
308 314 316 318 320 319 321 319 317 320 322 323 324 324 326 323 324 323 325 326 324 325 323 324 329 331 329 323 324 325 321 322 330 330 326 334 335 331 331 330 331 328 328 326 326
309 312 312 314 319 318 318 318 318 323 321 322 324 325 324 325 326 324 322 322 322 326 328 327 331 335 332 329 326 329 323 324 327 332 333 335 337 330 330 331 329 328 329 326 325
310 313 317 321 318 318 319 319 319 319 321 320 322 324 321 323 322 324 324 322 322 325 326 328 331 332 335 332 330 331 330 326 328 335 332 331 333 331 329 328 328 329 327 326 327
311 314 312 313 314 313 313 313 314 319 320 318 317 324 323 325 322 323 322 319 320 323 324 328 330 329 329 326 326 326 326 329 330 326 332 330 329 332 325 325 325 323 320 320 319
312 312 312 311 313 314 313 316 316 317 318 319 317 324 323 325 325 324 321 322 319 317 322 329 327 323 329 329 324 323 321 327 328 329 326 327 328 326 323 323 322 321 321 321 321
307 308 309 310 312 315 315 314 314 314 317 317 315 323 324 320 319 319 320 320 322 320 321 323 321 321 321 323 323 321 319 320 327 326 325 326 324 324 322 321 320 320 320 320 321

GFSSW_925_thetae_141.txt.gz
Theta_e
315 315 313 314 314 313 313 314 313 313 313 313 314 314 313 313 311 312 313 315 317 318 316 316 315 315 311 310 312 313 310 310 313 314 315 315 316 318 319 320 322 323 323 343 354
313 314 314 313 313 313 313 312 312 312 313 313 313 312 312 312 311 313 315 316 316 318 318 317 316 313 308 311 311 311 311 312 314 315 314 315 315 316 317 317 321 322 322 346 353
313 313 313 313 312 312 312 312 312 312 312 312 312 311 311 311 313 316 316 318 318 318 319 317 315 312 310 310 311 313 313 313 315 315 315 316 316 317 316 315 317 319 320 320 335
313 312 312 312 311 311 311 311 312 312 312 311 311 311 311 312 314 319 318 318 318 318 319 318 314 311 311 310 312 311 313 314 314 316 315 314 316 317 317 315 316 316 317 318 317
312 312 311 311 311 310 311 311 311 311 311 311 311 311 311 313 314 311 316 318 318 320 318 316 313 311 313 311 311 312 311 313 314 314 314 314 315 315 315 316 316 316 316 315 315
312 311 311 311 311 311 310 309 309 310 311 311 311 311 312 313 310 311 312 316 320 317 317 316 312 313 313 312 311 312 312 312 311 311 313 314 314 315 315 316 315 316 315 314 314
311 311 311 310 311 308 307 307 306 307 309 311 311 311 313 313 311 313 312 317 321 319 317 316 314 314 315 312 312 312 311 312 313 313 313 315 314 314 315 315 314 314 315 315 315
310 310 310 310 309 308 307 306 306 306 308 312 312 312 314 313 313 315 316 317 318 320 318 316 315 313 314 311 313 312 312 313 313 315 315 314 314 315 315 315 315 315 316 316 315
310 309 309 308 307 306 306 306 304 304 310 312 313 314 315 315 317 318 316 318 318 320 318 316 315 313 311 311 314 313 313 313 315 315 315 314 314 314 315 315 316 316 317 317 315
307 307 308 308 307 306 305 304 304 309 312 314 314 316 315 317 318 319 319 318 318 319 320 318 315 315 312 313 316 315 314 313 314 315 315 315 314 314 316 318 318 318 319 318 317
303 305 307 308 307 305 305 306 312 315 316 317 317 318 318 319 320 320 320 319 319 316 321 320 317 318 316 314 316 316 316 315 315 316 316 316 315 316 317 317 316 318 319 319 317
303 304 304 304 303 302 305 308 312 313 316 316 317 317 317 318 319 320 320 320 319 318 319 322 321 318 318 317 317 317 316 315 315 316 317 317 318 318 318 318 319 319 319 321 320
301 301 302 302 302 306 309 314 314 315 315 317 317 317 315 318 319 321 319 318 317 319 320 321 323 321 320 318 318 316 316 315 315 316 319 319 319 319 321 320 319 320 319 321 322
301 302 302 304 306 305 303 306 312 313 320 318 318 320 318 318 322 320 322 318 317 319 322 321 321 323 321 319 318 318 317 316 316 316 319 318 317 320 320 321 322 320 318 321 322
301 302 302 304 305 305 303 308 312 315 324 317 323 321 320 319 323 323 322 319 318 319 322 322 322 322 320 319 319 317 317 317 316 316 320 318 317 318 319 321 321 320 322 321 323
301 301 303 304 306 306 305 307 311 321 323 320 326 327 325 321 323 323 323 320 319 319 321 322 321 320 319 320 319 318 317 316 315 315 317 318 319 318 318 322 322 322 324 322 323
301 302 303 304 306 306 307 310 317 321 315 324 329 326 326 326 326 324 324 323 321 324 327 324 323 320 321 322 318 317 314 315 320 317 318 318 319 317 319 323 322 325 323 321 324
301 302 305 307 309 309 309 316 319 315 316 319 325 325 326 326 325 325 326 327 322 325 329 328 325 322 322 320 318 315 314 318 322 322 320 321 320 319 319 324 325 325 322 324 324
303 305 308 312 311 311 313 319 316 315 315 315 316 325 321 325 325 327 326 326 324 321 327 326 328 324 321 321 320 317 317 317 321 324 326 322 321 322 321 324 323 323 326 325 325
304 307 311 315 313 313 317 316 313 313 313 316 322 323 325 320 328 327 327 325 326 322 317 322 325 324 323 321 321 319 318 319 321 328 326 324 327 333 330 329 323 327 325 325 325
305 309 315 316 316 317 319 318 317 315 318 322 325 326 325 327 326 326 328 326 325 325 318 321 327 328 327 322 319 319 320 319 319 320 325 330 335 330 332 331 329 327 325 323 322
305 308 316 313 318 317 317 317 316 318 319 321 322 324 321 319 325 324 324 326 323 323 327 319 325 327 327 325 325 327 320 322 324 327 327 330 331 330 329 329 329 327 327 327 328
305 307 311 313 317 318 317 316 313 318 319 321 320 320 321 323 324 323 322 321 322 323 328 321 326 330 329 327 326 326 322 323 324 328 331 334 332 330 329 327 327 326 328 326 328
306 313 313 311 315 316 314 314 315 314 314 320 321 319 320 322 322 324 324 322 323 323 325 327 329 329 330 332 330 330 330 329 325 327 330 331 333 331 328 325 322 322 322 323 322
309 313 310 311 310 310 311 314 316 317 317 319 319 318 313 316 322 323 323 322 322 321 323 328 331 330 329 326 327 327 328 329 331 330 330 329 330 332 327 322 322 321 322 324 321
309 309 308 308 309 307 313 315 316 316 316 319 317 315 314 317 321 325 321 319 324 322 325 325 327 326 328 329 326 325 325 328 329 331 330 326 330 328 326 323 322 321 321 321 321
304 305 307 308 310 309 313 312 313 314 315 317 315 315 319 320 319 320 319 321 318 320 322 326 326 326 330 329 327 327 322 322 326 329 329 329 324 326 325 322 320 319 319 319 318

GFSSW_925_thetae_144.txt.gz
Theta_e
313 313 313 313 313 312 312 312 312 312 312 312 313 312 312 311 311 311 311 313 315 317 314 313 314 315 311 309 311 310 308 308 311 314 313 314 314 315 315 315 319 320 337 351 351
313 313 313 312 312 312 312 312 312 312 312 312 312 311 311 311 311 311 311 312 313 315 317 317 316 314 307 307 309 309 307 309 310 312 313 314 315 315 317 314 316 317 331 351 351
313 312 312 311 311 311 311 311 311 311 312 312 311 311 311 310 311 312 317 318 317 313 318 318 316 313 309 308 308 309 310 310 312 312 312 313 314 315 316 316 316 315 317 319 321
312 312 312 311 311 311 311 311 310 311 311 311 311 311 310 311 309 316 318 318 317 317 319 319 316 312 309 309 308 310 310 312 311 313 312 313 313 315 316 315 314 314 314 316 316
311 311 311 312 311 310 311 309 308 308 308 310 310 310 310 310 312 310 312 313 315 319 324 319 317 310 310 310 309 308 309 310 311 312 313 312 313 313 313 314 314 314 314 313 313
310 310 310 310 311 311 308 307 307 307 308 309 310 310 311 311 308 308 311 311 316 322 320 316 314 312 310 311 309 309 310 311 310 307 309 312 313 313 314 314 314 314 313 313 313
310 310 309 309 308 308 308 307 306 306 307 309 310 311 311 310 307 309 310 310 314 319 317 317 316 312 310 313 310 310 310 310 310 309 308 311 312 312 313 314 313 313 312 312 312
308 308 306 306 307 308 308 307 306 303 308 309 311 313 312 311 311 310 311 312 314 318 317 316 316 314 311 310 312 310 308 310 310 310 310 312 313 313 313 313 313 313 312 312 312
305 304 303 305 306 308 307 305 302 304 309 310 313 313 313 313 314 316 315 314 317 316 318 319 314 312 312 311 310 309 311 309 312 311 313 311 313 313 313 312 312 312 312 313 313
304 301 301 301 301 302 302 302 303 310 310 313 314 316 314 316 316 318 318 316 318 318 319 318 314 313 312 307 313 310 312 312 312 313 312 312 313 312 312 312 313 312 314 314 314
303 301 301 301 302 303 304 304 307 311 313 316 316 316 316 315 316 317 318 317 318 318 320 318 318 319 315 313 312 314 314 314 314 314 313 312 314 314 313 312 313 313 314 314 314
302 302 302 301 302 303 306 304 308 311 314 315 316 316 315 315 316 316 315 319 319 320 315 319 322 319 317 315 313 314 315 315 314 315 312 313 313 314 313 313 313 315 314 315 316
301 301 301 302 302 307 304 306 308 308 309 314 314 317 316 316 318 317 317 318 319 319 318 318 321 320 319 318 318 315 315 315 315 315 314 314 315 315 315 315 316 316 316 316 317
301 302 302 303 303 304 303 301 304 308 315 317 316 318 316 317 318 316 316 318 317 319 318 317 318 320 321 320 319 317 316 316 316 317 315 315 315 316 317 317 318 318 315 319 324
301 302 303 304 303 303 303 304 307 312 314 314 322 320 315 316 319 321 317 319 318 317 316 319 319 320 322 321 320 320 317 317 317 317 314 315 316 314 316 317 317 317 317 319 329
301 302 304 303 303 303 304 306 308 316 317 317 325 325 322 319 321 323 320 319 317 318 317 318 319 320 320 321 322 320 319 318 317 314 315 314 316 316 316 318 318 318 320 324 327
301 302 302 304 302 306 306 307 312 319 313 320 325 321 324 325 326 327 325 325 323 322 321 319 320 321 321 322 321 319 319 320 318 315 314 313 316 315 317 318 320 320 320 325 324
301 302 303 305 307 305 307 312 317 314 314 314 314 315 321 322 324 324 327 326 324 323 324 326 326 324 322 321 319 316 318 314 316 318 314 317 317 315 318 321 323 324 325 326 327
302 303 305 310 308 308 308 316 315 315 313 313 316 319 324 321 323 322 326 326 325 322 326 328 328 324 322 321 319 320 316 315 316 326 322 320 320 328 328 324 325 327 329 329 331
302 304 305 311 309 311 313 315 312 311 312 314 320 321 324 325 323 323 327 325 324 324 322 326 328 322 322 322 321 320 315 317 321 327 330 324 333 336 332 331 326 325 324 325 331
302 302 309 311 311 315 318 316 317 317 316 319 320 322 322 324 323 325 327 325 324 322 322 322 322 323 325 324 323 320 319 317 319 321 325 328 330 331 330 327 327 324 324 324 322
301 301 309 307 309 312 316 314 312 314 315 316 320 321 323 318 317 317 325 324 323 324 325 319 324 324 322 324 323 325 321 317 320 321 322 330 330 330 328 326 327 327 327 326 325
302 300 308 309 314 312 311 311 312 314 316 317 319 319 320 321 321 322 323 321 323 324 327 322 323 326 325 324 325 327 321 319 319 322 328 328 328 328 329 327 325 324 324 325 326
302 307 308 304 307 308 308 310 313 314 315 315 317 319 316 317 319 323 323 323 322 324 325 325 323 323 324 328 328 328 326 328 323 325 328 328 333 330 328 328 326 323 319 320 321
306 310 306 304 305 305 307 311 311 313 313 314 317 317 315 315 317 319 322 322 322 323 324 327 326 325 323 327 326 328 329 329 329 327 326 328 330 327 326 327 325 323 322 324 326
306 305 305 304 305 307 308 310 313 312 312 316 318 316 313 314 314 320 319 322 321 323 324 321 326 325 323 323 324 328 327 328 329 329 328 327 331 327 323 323 321 323 322 324 322
302 303 304 305 305 305 310 308 311 309 312 312 315 317 314 313 315 317 317 319 318 322 323 321 324 327 327 329 325 327 326 326 326 327 330 330 327 325 326 321 320 320 322 321 319

GFSSW_925_thetae_147.txt.gz
Theta_e
313 313 312 312 312 312 311 311 311 311 312 312 312 312 312 311 310 311 311 311 312 315 315 314 314 314 311 308 309 306 307 308 310 311 312 313 314 313 314 315 315 315 338 349 355
313 313 312 312 311 311 311 310 310 311 311 312 311 311 311 310 311 310 310 311 309 311 315 313 313 312 308 307 307 309 306 308 308 310 313 313 313 313 314 314 315 315 317 351 355
312 311 311 311 311 311 311 310 311 310 310 310 310 310 310 310 309 309 320 318 316 318 317 316 315 311 310 306 306 308 309 309 311 311 310 312 312 313 314 313 314 316 315 320 346
310 310 310 310 310 310 310 310 310 310 310 308 308 309 310 310 304 312 319 317 314 318 321 319 316 311 308 309 307 308 307 311 311 311 311 312 313 313 313 312 314 314 314 317 317
310 310 309 309 309 309 308 308 308 308 309 309 308 309 310 309 310 307 314 310 312 318 319 318 314 311 308 307 308 307 308 309 310 310 310 311 312 311 311 311 312 311 312 313 313
308 308 308 307 306 305 307 307 308 308 308 309 309 309 310 310 308 307 309 311 318 319 321 319 316 312 311 309 308 309 308 310 309 307 307 309 310 311 311 311 311 311 312 311 311
305 306 305 305 306 305 307 308 308 308 308 308 309 309 310 309 308 309 310 309 309 320 319 322 317 316 312 313 310 310 310 309 308 308 308 309 310 310 310 311 312 311 311 311 310
304 303 301 302 304 302 303 302 302 306 307 308 308 309 311 310 310 310 311 311 311 309 316 318 317 312 310 309 310 310 308 312 309 308 308 308 310 310 311 311 312 312 311 311 310
304 303 302 304 305 305 303 304 305 307 309 308 309 310 312 311 313 314 314 312 312 312 314 318 314 314 311 315 311 309 311 308 310 308 310 308 310 311 311 311 312 311 310 311 310
304 302 302 302 303 302 304 305 308 309 310 311 313 314 311 314 315 316 316 313 316 315 315 318 315 312 308 310 314 312 310 310 310 311 309 310 310 310 311 311 311 311 310 310 311
304 302 302 302 303 304 304 306 305 309 312 314 314 316 315 315 315 316 317 315 315 316 319 317 320 317 314 310 310 311 311 311 312 311 311 311 310 311 312 310 309 309 309 309 311
302 302 302 304 304 304 306 303 306 310 311 311 312 313 313 313 315 314 314 317 318 319 316 319 321 319 316 313 313 313 312 311 313 314 312 312 311 311 311 311 310 311 311 311 312
301 301 303 304 304 305 303 303 303 305 307 311 312 313 314 314 316 316 314 314 318 317 316 318 319 319 319 318 317 312 312 312 314 315 314 313 313 312 313 312 313 311 311 311 312
300 301 303 303 303 303 302 302 303 306 311 313 315 315 315 315 317 315 315 317 317 318 317 317 316 317 320 320 317 318 314 314 315 316 314 313 313 313 313 314 312 312 311 312 314
300 300 303 303 303 302 303 303 306 307 304 309 321 318 314 316 316 322 315 315 319 317 316 318 316 316 318 320 319 318 317 316 317 317 315 315 312 313 313 315 314 314 314 315 325
300 300 302 303 303 303 303 305 307 308 310 314 319 313 316 318 323 322 318 317 317 316 315 317 316 316 317 318 320 319 320 320 318 317 317 316 313 312 314 315 316 317 315 326 329
300 301 302 303 302 305 306 305 310 313 310 315 316 314 314 321 322 325 324 324 323 324 323 322 319 317 318 319 318 321 322 328 324 319 320 314 313 313 314 316 317 319 321 324 325
301 302 303 304 305 305 306 309 309 307 311 311 312 315 316 321 322 325 321 325 325 322 322 326 323 319 320 321 321 321 324 325 329 319 319 313 315 313 321 322 320 320 322 325 334
301 302 306 309 306 305 307 312 308 313 314 315 316 318 321 321 322 323 323 321 324 323 326 326 325 322 320 320 322 320 323 319 315 326 321 316 318 326 328 326 325 327 329 333 334
301 301 307 309 309 310 314 313 312 314 314 316 319 319 321 321 322 323 324 323 325 324 322 324 327 323 322 320 320 322 318 320 322 323 325 324 333 332 330 328 325 327 326 331 333
301 299 308 310 311 315 316 316 315 312 312 316 319 319 319 320 320 324 324 324 324 323 323 324 324 324 322 323 322 321 322 321 317 318 322 327 329 329 328 327 326 325 325 327 329
300 297 308 307 309 312 312 310 310 311 313 314 316 317 319 318 320 320 322 324 324 324 325 324 324 326 323 323 323 322 320 318 318 321 320 324 330 329 325 325 325 325 328 325 322
302 301 306 307 310 306 308 308 308 312 314 315 315 317 318 319 319 319 320 321 322 323 326 324 324 326 324 325 322 325 324 319 316 319 323 324 327 327 326 324 324 324 325 325 323
302 305 304 302 307 305 306 308 311 309 311 312 314 316 316 317 316 319 319 322 322 323 325 324 321 323 324 324 324 326 325 321 320 319 323 323 334 329 330 328 324 324 323 324 322
302 304 304 302 302 303 304 307 309 311 311 311 314 316 316 317 315 316 318 319 321 323 323 325 325 323 325 327 327 327 327 328 322 321 324 327 331 329 329 329 327 324 325 327 321
299 300 302 303 303 304 304 308 309 308 309 310 312 311 314 315 316 318 316 318 322 323 322 322 327 324 325 324 326 328 328 329 329 327 328 330 331 326 326 325 326 325 326 323 319
301 302 302 302 304 305 306 307 307 308 308 309 309 311 314 316 314 314 314 316 317 320 321 322 321 325 327 325 325 328 325 327 329 328 328 329 328 325 325 324 325 324 325 322 320